Time,TemperatureF,DewpointF,PressureIn,WindDirection,WindDirectionDegrees,WindSpeedMPH,WindSpeedGustMPH,Humidity,HourlyPrecipIn,Conditions,Clouds,dailyrainin,SoftwareType,DateUTC
2013-02-07 00:02:00,24.0,7.0,30.23,WNW,299,2.0,12.0,48,0.00,,,0.00,,2013-02-07 05:02:00,
2013-02-07 00:12:00,24.0,7.0,30.23,WNW,299,2.0,12.0,48,0.00,,,0.00,,2013-02-07 05:12:00,
2013-02-07 00:21:00,24.0,7.0,30.24,NW,319,2.0,14.0,48,0.00,,,0.00,,2013-02-07 05:21:00,
2013-02-07 00:32:00,24.0,7.0,30.24,WNW,289,3.0,12.0,48,0.00,,,0.00,,2013-02-07 05:32:00,
2013-02-07 00:42:00,24.0,7.0,30.24,WNW,289,3.0,12.0,48,0.00,,,0.00,,2013-02-07 05:42:00,
2013-02-07 00:52:00,24.0,8.0,30.25,West,277,4.0,9.0,49,0.00,,,0.00,,2013-02-07 05:52:00,
2013-02-07 01:02:00,24.0,8.0,30.25,WNW,284,4.0,10.0,49,0.00,,,0.00,,2013-02-07 06:02:00,
2013-02-07 01:11:00,24.0,8.0,30.25,WNW,284,4.0,10.0,49,0.00,,,0.00,,2013-02-07 06:11:00,
2013-02-07 01:22:00,23.0,8.0,30.25,WNW,293,2.0,6.0,51,0.00,,,0.00,,2013-02-07 06:22:00,
2013-02-07 01:32:00,22.0,7.0,30.26,West,274,3.0,6.0,52,0.00,,,0.00,,2013-02-07 06:32:00,
2013-02-07 01:43:00,22.0,7.0,30.26,West,274,3.0,6.0,52,0.00,,,0.00,,2013-02-07 06:43:00,
2013-02-07 01:52:00,21.0,7.0,30.27,NW,306,1.0,6.0,53,0.00,,,0.00,,2013-02-07 06:52:00,
2013-02-07 02:02:00,21.0,7.0,30.27,WNW,290,0.0,4.0,54,0.00,,,0.00,,2013-02-07 07:02:00,
2013-02-07 02:11:00,20.0,6.0,30.27,WNW,290,1.0,3.0,54,0.00,,,0.00,,2013-02-07 07:11:00,
2013-02-07 02:22:00,20.0,6.0,30.27,WNW,290,1.0,3.0,54,0.00,,,0.00,,2013-02-07 07:22:00,
2013-02-07 02:32:00,20.0,7.0,30.27,WNW,292,0.0,5.0,56,0.00,,,0.00,,2013-02-07 07:32:00,
2013-02-07 02:42:00,20.0,7.0,30.27,WNW,292,0.0,5.0,56,0.00,,,0.00,,2013-02-07 07:42:00,
2013-02-07 02:52:00,20.0,7.0,30.28,WNW,292,0.0,2.0,57,0.00,,,0.00,,2013-02-07 07:52:00,
2013-02-07 03:02:00,19.0,7.0,30.29,WNW,292,0.0,3.0,58,0.00,,,0.00,,2013-02-07 08:02:00,
2013-02-07 03:11:00,19.0,7.0,30.29,WNW,292,0.0,3.0,58,0.00,,,0.00,,2013-02-07 08:11:00,
2013-02-07 03:22:00,19.0,7.0,30.30,WNW,292,0.0,1.0,58,0.00,,,0.00,,2013-02-07 08:22:00,
2013-02-07 03:32:00,18.0,7.0,30.30,WNW,290,2.0,5.0,62,0.00,,,0.00,,2013-02-07 08:32:00,
2013-02-07 03:42:00,18.0,7.0,30.30,WNW,290,2.0,5.0,62,0.00,,,0.00,,2013-02-07 08:42:00,
2013-02-07 03:52:00,18.0,8.0,30.31,WNW,300,3.0,5.0,63,0.00,,,0.00,,2013-02-07 08:52:00,
2013-02-07 04:02:00,18.0,7.0,30.32,WNW,296,2.0,5.0,62,0.00,,,0.00,,2013-02-07 09:02:00,
2013-02-07 04:11:00,18.0,7.0,30.33,WNW,288,2.0,4.0,61,0.00,,,0.00,,2013-02-07 09:11:00,
2013-02-07 04:21:00,18.0,7.0,30.33,WNW,288,2.0,4.0,61,0.00,,,0.00,,2013-02-07 09:21:00,
2013-02-07 04:32:00,18.0,9.0,30.32,WNW,288,1.0,3.0,68,0.00,,,0.00,,2013-02-07 09:32:00,
2013-02-07 04:42:00,18.0,9.0,30.32,WNW,288,1.0,3.0,68,0.00,,,0.00,,2013-02-07 09:42:00,
2013-02-07 04:52:00,18.0,9.0,30.32,WNW,288,1.0,3.0,68,0.00,,,0.00,,2013-02-07 09:52:00,
2013-02-07 05:02:00,16.0,9.0,30.34,NW,325,0.0,3.0,72,0.00,,,0.00,,2013-02-07 10:02:00,
2013-02-07 05:11:00,16.0,9.0,30.34,NW,325,0.0,3.0,72,0.00,,,0.00,,2013-02-07 10:11:00,
2013-02-07 05:22:00,16.0,9.0,30.34,NW,325,0.0,0.0,72,0.00,,,0.00,,2013-02-07 10:22:00,
2013-02-07 05:32:00,16.0,8.0,30.34,NW,325,0.0,2.0,71,0.00,,,0.00,,2013-02-07 10:32:00,
2013-02-07 05:42:00,16.0,8.0,30.34,NW,325,0.0,2.0,71,0.00,,,0.00,,2013-02-07 10:42:00,
2013-02-07 05:51:00,16.0,9.0,30.35,NW,325,0.0,1.0,72,0.00,,,0.00,,2013-02-07 10:51:00,
2013-02-07 06:01:00,15.0,8.0,30.35,NW,325,1.0,3.0,74,0.00,,,0.00,,2013-02-07 11:01:00,
2013-02-07 06:11:00,15.0,8.0,30.35,NW,325,1.0,3.0,74,0.00,,,0.00,,2013-02-07 11:11:00,
2013-02-07 06:23:00,15.0,8.0,30.35,NW,325,1.0,3.0,74,0.00,,,0.00,,2013-02-07 11:23:00,
2013-02-07 06:32:00,15.0,8.0,30.36,NW,325,0.0,1.0,74,0.00,,,0.00,,2013-02-07 11:32:00,
2013-02-07 06:44:00,15.0,8.0,30.36,NW,325,0.0,1.0,74,0.00,,,0.00,,2013-02-07 11:44:00,
2013-02-07 06:52:00,15.0,8.0,30.36,NW,325,0.0,1.0,74,0.00,,,0.00,,2013-02-07 11:52:00,
2013-02-07 07:02:00,15.0,8.0,30.38,NW,325,1.0,2.0,73,0.00,,,0.00,,2013-02-07 12:02:00,
2013-02-07 07:11:00,15.0,8.0,30.38,NW,325,1.0,2.0,73,0.00,,,0.00,,2013-02-07 12:11:00,
2013-02-07 07:22:00,15.0,8.0,30.39,NW,325,2.0,3.0,74,0.00,,,0.00,,2013-02-07 12:22:00,
2013-02-07 07:33:00,15.0,9.0,30.39,NW,326,1.0,3.0,76,0.00,,,0.00,,2013-02-07 12:33:00,
2013-02-07 07:42:00,15.0,9.0,30.39,NW,326,1.0,3.0,76,0.00,,,0.00,,2013-02-07 12:42:00,
2013-02-07 07:52:00,15.0,9.0,30.40,NNW,327,1.0,4.0,76,0.00,,,0.00,,2013-02-07 12:52:00,
2013-02-07 08:03:00,17.0,10.0,30.42,NNW,327,1.0,3.0,74,0.00,,,0.00,,2013-02-07 13:03:00,
2013-02-07 08:12:00,17.0,10.0,30.42,NNW,327,1.0,3.0,74,0.00,,,0.00,,2013-02-07 13:12:00,
2013-02-07 08:22:00,19.0,11.0,30.43,NNW,327,0.0,4.0,72,0.00,,,0.00,,2013-02-07 13:22:00,
2013-02-07 08:32:00,20.0,9.0,30.44,NNW,327,3.0,4.0,63,0.00,,,0.00,,2013-02-07 13:32:00,
2013-02-07 08:42:00,20.0,9.0,30.44,NNW,327,3.0,4.0,63,0.00,,,0.00,,2013-02-07 13:42:00,
2013-02-07 08:52:00,20.0,9.0,30.44,NNW,338,4.0,7.0,62,0.00,,,0.00,,2013-02-07 13:52:00,
2013-02-07 09:01:00,21.0,9.0,30.44,NNW,336,3.0,7.0,58,0.00,,,0.00,,2013-02-07 14:01:00,
2013-02-07 09:11:00,21.0,9.0,30.44,NNW,336,3.0,7.0,58,0.00,,,0.00,,2013-02-07 14:11:00,
2013-02-07 09:22:00,21.0,8.0,30.44,North,355,4.0,8.0,56,0.00,,,0.00,,2013-02-07 14:22:00,
2013-02-07 09:32:00,21.0,7.0,30.45,North,355,3.0,6.0,55,0.00,,,0.00,,2013-02-07 14:32:00,
2013-02-07 09:42:00,21.0,7.0,30.45,North,355,3.0,6.0,55,0.00,,,0.00,,2013-02-07 14:42:00,
2013-02-07 09:52:00,22.0,8.0,30.45,NNW,336,0.0,6.0,55,0.00,,,0.00,,2013-02-07 14:52:00,
2013-02-07 10:02:00,23.0,8.0,30.45,NNW,332,4.0,10.0,52,0.00,,,0.00,,2013-02-07 15:02:00,
2013-02-07 10:11:00,23.0,8.0,30.45,NNW,332,4.0,10.0,52,0.00,,,0.00,,2013-02-07 15:11:00,
2013-02-07 10:22:00,23.0,8.0,30.46,NNW,344,3.0,8.0,51,0.00,,,0.00,,2013-02-07 15:22:00,
2013-02-07 10:32:00,23.0,7.0,30.47,NNW,336,4.0,7.0,49,0.00,,,0.00,,2013-02-07 15:32:00,
2013-02-07 10:42:00,23.0,7.0,30.47,NNW,336,4.0,7.0,49,0.00,,,0.00,,2013-02-07 15:42:00,
2013-02-07 10:52:00,23.0,7.0,30.47,NW,325,3.0,7.0,50,0.00,,,0.00,,2013-02-07 15:52:00,
2013-02-07 11:01:00,26.0,9.0,30.47,NNW,343,1.0,9.0,49,0.00,,,0.00,,2013-02-07 16:01:00,
2013-02-07 11:11:00,26.0,9.0,30.47,NNW,343,1.0,9.0,49,0.00,,,0.00,,2013-02-07 16:11:00,
2013-02-07 11:22:00,26.0,9.0,30.47,NNW,336,0.0,6.0,47,0.00,,,0.00,,2013-02-07 16:22:00,
2013-02-07 11:32:00,27.0,8.0,30.46,NE,44,5.0,13.0,44,0.00,,,0.00,,2013-02-07 16:32:00,
2013-02-07 11:42:00,27.0,8.0,30.46,NE,44,5.0,13.0,44,0.00,,,0.00,,2013-02-07 16:42:00,
2013-02-07 11:52:00,27.0,8.0,30.46,NE,35,5.0,10.0,44,0.00,,,0.00,,2013-02-07 16:52:00,
2013-02-07 12:01:00,27.0,8.0,30.45,NW,304,4.0,7.0,43,0.00,,,0.00,,2013-02-07 17:01:00,
2013-02-07 12:11:00,27.0,8.0,30.45,NNW,330,5.0,12.0,43,0.00,,,0.00,,2013-02-07 17:11:00,
2013-02-07 12:21:00,27.0,8.0,30.45,NNW,330,5.0,12.0,43,0.00,,,0.00,,2013-02-07 17:21:00,
2013-02-07 12:32:00,28.0,8.0,30.44,NNE,26,4.0,11.0,42,0.00,,,0.00,,2013-02-07 17:32:00,
2013-02-07 12:43:00,28.0,8.0,30.44,NNE,26,4.0,11.0,42,0.00,,,0.00,,2013-02-07 17:43:00,
2013-02-07 12:52:00,29.0,9.0,30.43,North,5,6.0,13.0,42,0.00,,,0.00,,2013-02-07 17:52:00,
2013-02-07 13:02:00,29.0,8.0,30.42,NE,51,5.0,11.0,41,0.00,,,0.00,,2013-02-07 18:02:00,
2013-02-07 13:11:00,29.0,8.0,30.42,NE,51,5.0,11.0,41,0.00,,,0.00,,2013-02-07 18:11:00,
2013-02-07 13:23:00,29.0,8.0,30.42,NE,51,5.0,11.0,41,0.00,,,0.00,,2013-02-07 18:23:00,
2013-02-07 13:32:00,29.0,9.0,30.42,ENE,74,2.0,11.0,42,0.00,,,0.00,,2013-02-07 18:32:00,
2013-02-07 13:42:00,29.0,9.0,30.42,ENE,74,2.0,11.0,42,0.00,,,0.00,,2013-02-07 18:42:00,
2013-02-07 13:52:00,29.0,8.0,30.42,NNE,32,3.0,9.0,40,0.00,,,0.00,,2013-02-07 18:52:00,
2013-02-07 14:01:00,30.0,8.0,30.41,NNE,28,2.0,10.0,38,0.00,,,0.00,,2013-02-07 19:01:00,
2013-02-07 14:11:00,30.0,8.0,30.41,NNE,28,2.0,10.0,38,0.00,,,0.00,,2013-02-07 19:11:00,
2013-02-07 14:22:00,30.0,8.0,30.41,North,5,1.0,7.0,39,0.00,,,0.00,,2013-02-07 19:22:00,
2013-02-07 14:32:00,30.0,8.0,30.40,North,5,3.0,5.0,38,0.00,,,0.00,,2013-02-07 19:32:00,
2013-02-07 14:42:00,30.0,8.0,30.40,North,5,3.0,5.0,38,0.00,,,0.00,,2013-02-07 19:42:00,
2013-02-07 14:52:00,30.0,8.0,30.40,NE,34,6.0,10.0,39,0.00,,,0.00,,2013-02-07 19:52:00,
2013-02-07 15:01:00,30.0,8.0,30.41,NE,34,2.0,8.0,38,0.00,,,0.00,,2013-02-07 20:01:00,
2013-02-07 15:11:00,30.0,8.0,30.41,NE,34,2.0,8.0,38,0.00,,,0.00,,2013-02-07 20:11:00,
2013-02-07 15:22:00,30.0,8.0,30.41,NE,40,0.0,7.0,38,0.00,,,0.00,,2013-02-07 20:22:00,
2013-02-07 15:32:00,30.0,8.0,30.41,NNW,346,0.0,5.0,38,0.00,,,0.00,,2013-02-07 20:32:00,
2013-02-07 15:42:00,30.0,8.0,30.41,NNW,346,0.0,5.0,38,0.00,,,0.00,,2013-02-07 20:42:00,
2013-02-07 15:52:00,30.0,9.0,30.41,North,5,0.0,3.0,40,0.00,,,0.00,,2013-02-07 20:52:00,
2013-02-07 16:02:00,30.0,9.0,30.41,NNE,29,2.0,5.0,40,0.00,,,0.00,,2013-02-07 21:02:00,
2013-02-07 16:11:00,30.0,9.0,30.41,NNE,29,2.0,5.0,40,0.00,,,0.00,,2013-02-07 21:11:00,
2013-02-07 16:22:00,30.0,9.0,30.41,NNE,29,2.0,5.0,40,0.00,,,0.00,,2013-02-07 21:22:00,
2013-02-07 16:32:00,29.0,8.0,30.41,NE,42,3.0,6.0,40,0.00,,,0.00,,2013-02-07 21:32:00,
2013-02-07 16:42:00,29.0,8.0,30.41,NE,42,3.0,6.0,40,0.00,,,0.00,,2013-02-07 21:42:00,
2013-02-07 16:52:00,29.0,9.0,30.41,NE,42,1.0,4.0,42,0.00,,,0.00,,2013-02-07 21:52:00,
2013-02-07 17:02:00,28.0,7.0,30.41,NE,42,2.0,5.0,41,0.00,,,0.00,,2013-02-07 22:02:00,
2013-02-07 17:11:00,28.0,8.0,30.41,NE,51,1.0,7.0,42,0.00,,,0.00,,2013-02-07 22:11:00,
2013-02-07 17:21:00,28.0,8.0,30.41,NE,51,1.0,7.0,42,0.00,,,0.00,,2013-02-07 22:21:00,
2013-02-07 17:32:00,28.0,7.0,30.41,NE,51,0.0,5.0,41,0.00,,,0.00,,2013-02-07 22:32:00,
2013-02-07 17:42:00,28.0,7.0,30.41,NE,51,0.0,5.0,41,0.00,,,0.00,,2013-02-07 22:42:00,
2013-02-07 17:52:00,27.0,7.0,30.42,NE,36,2.0,7.0,42,0.00,,,0.00,,2013-02-07 22:52:00,
2013-02-07 18:02:00,27.0,7.0,30.42,NE,36,2.0,7.0,42,0.00,,,0.00,,2013-02-07 23:02:00,
2013-02-07 18:11:00,27.0,7.0,30.42,NE,36,2.0,7.0,42,0.00,,,0.00,,2013-02-07 23:11:00,
2013-02-07 18:22:00,26.0,7.0,30.42,East,83,1.0,7.0,44,0.00,,,0.00,,2013-02-07 23:22:00,
2013-02-07 18:32:00,26.0,7.0,30.43,East,84,2.0,5.0,43,0.00,,,0.00,,2013-02-07 23:32:00,
2013-02-07 18:42:00,26.0,7.0,30.43,East,84,2.0,5.0,43,0.00,,,0.00,,2013-02-07 23:42:00,
2013-02-07 18:52:00,26.0,7.0,30.43,East,84,2.0,5.0,43,0.00,,,0.00,,2013-02-07 23:52:00,
2013-02-07 19:02:00,26.0,7.0,30.45,ENE,61,2.0,6.0,44,0.00,,,0.00,,2013-02-08 00:02:00,
2013-02-07 19:11:00,26.0,7.0,30.45,ENE,61,2.0,6.0,44,0.00,,,0.00,,2013-02-08 00:11:00,
2013-02-07 19:22:00,26.0,7.0,30.44,East,84,1.0,7.0,44,0.00,,,0.00,,2013-02-08 00:22:00,
2013-02-07 19:32:00,25.0,7.0,30.44,ENE,63,1.0,5.0,46,0.00,,,0.00,,2013-02-08 00:32:00,
2013-02-07 19:42:00,25.0,7.0,30.44,ENE,63,1.0,5.0,46,0.00,,,0.00,,2013-02-08 00:42:00,
2013-02-07 19:52:00,25.0,7.0,30.44,East,80,0.0,7.0,46,0.00,,,0.00,,2013-02-08 00:52:00,
2013-02-07 20:01:00,25.0,7.0,30.44,ENE,78,2.0,5.0,45,0.00,,,0.00,,2013-02-08 01:01:00,
2013-02-07 20:11:00,25.0,7.0,30.44,ENE,78,2.0,5.0,45,0.00,,,0.00,,2013-02-08 01:11:00,
2013-02-07 20:21:00,25.0,7.0,30.43,ESE,113,3.0,10.0,45,0.00,,,0.00,,2013-02-08 01:21:00,
2013-02-07 20:32:00,25.0,7.0,30.44,East,79,2.0,6.0,46,0.00,,,0.00,,2013-02-08 01:32:00,
2013-02-07 20:41:00,25.0,7.0,30.44,East,79,2.0,6.0,46,0.00,,,0.00,,2013-02-08 01:41:00,
2013-02-07 20:51:00,25.0,8.0,30.44,ESE,107,3.0,5.0,47,0.00,,,0.00,,2013-02-08 01:51:00,
2013-02-07 21:01:00,25.0,9.0,30.44,ESE,102,2.0,6.0,51,0.00,,,0.00,,2013-02-08 02:01:00,
2013-02-07 21:11:00,25.0,9.0,30.44,ESE,102,2.0,6.0,51,0.00,,,0.00,,2013-02-08 02:11:00,
2013-02-07 21:21:00,25.0,10.0,30.44,East,86,2.0,9.0,52,0.00,,,0.00,,2013-02-08 02:21:00,
2013-02-07 21:32:00,25.0,11.0,30.44,East,80,2.0,11.0,55,0.00,,,0.00,,2013-02-08 02:32:00,
2013-02-07 21:42:00,25.0,11.0,30.44,East,80,2.0,11.0,55,0.00,,,0.00,,2013-02-08 02:42:00,
2013-02-07 21:52:00,25.0,11.0,30.44,East,95,2.0,6.0,55,0.00,,,0.00,,2013-02-08 02:52:00,
2013-02-07 22:02:00,25.0,12.0,30.44,East,93,3.0,9.0,57,0.00,,,0.00,,2013-02-08 03:02:00,
2013-02-07 22:12:00,25.0,12.0,30.44,East,93,3.0,9.0,57,0.00,,,0.00,,2013-02-08 03:12:00,
2013-02-07 22:22:00,25.0,12.0,30.44,East,93,3.0,9.0,57,0.00,,,0.00,,2013-02-08 03:22:00,
2013-02-07 22:32:00,25.0,13.0,30.43,ENE,66,1.0,6.0,59,0.00,,,0.00,,2013-02-08 03:32:00,
2013-02-07 22:42:00,25.0,13.0,30.43,ENE,66,1.0,6.0,59,0.00,,,0.00,,2013-02-08 03:42:00,
2013-02-07 22:52:00,25.0,13.0,30.43,ESE,119,1.0,5.0,60,0.00,,,0.00,,2013-02-08 03:52:00,
2013-02-07 23:02:00,25.0,13.0,30.43,East,94,1.0,2.0,61,0.00,,,0.00,,2013-02-08 04:02:00,
2013-02-07 23:11:00,25.0,13.0,30.43,East,94,1.0,2.0,61,0.00,,,0.00,,2013-02-08 04:11:00,
2013-02-07 23:21:00,25.0,14.0,30.43,East,101,1.0,5.0,62,0.00,,,0.00,,2013-02-08 04:21:00,
2013-02-07 23:32:00,24.0,13.0,30.43,ESE,106,1.0,5.0,63,0.00,,,0.00,,2013-02-08 04:32:00,
2013-02-07 23:42:00,24.0,13.0,30.43,ESE,106,1.0,5.0,63,0.00,,,0.00,,2013-02-08 04:42:00,
2013-02-07 23:51:00,24.0,14.0,30.43,ESE,106,1.0,4.0,64,0.00,,,0.00,,2013-02-08 04:51:00,